DW6036 Weather Reports


Display with metric or nautical units.
time (UTC)temp
F
wind
direction
speed
MPH
gust
MPH
rain 1hr
in
rain 24hr
in
rain mn
in
humidity
%
barometer
mb
20260506120018 75 153 3.0 7.0 0.00 0.00 0.00 99 1009.8
20260506114607 75 139 3.0 7.0 0.00 0.00 0.00 99 1009.7
20260506113040 75 118 3.0 6.0 0.00 0.00 0.00 99 1009.7
20260506111530 75 122 4.0 7.0 0.00 0.00 0.00 99 1009.5
20260506110145 75 156 3.0 6.0 0.00 0.00 0.00 99 1009.4
20260506104528 75 125 3.0 6.0 0.00 0.00 0.00 99 1009.3
20260506103029 75 136 2.0 7.0 0.00 0.00 0.00 99 1009.1
20260506101538 75 117 2.0 6.0 0.00 0.00 0.00 99 1009.1
20260506100022 75 128 3.0 7.0 0.00 0.00 0.00 99 1009.3
20260506094524 75 134 3.0 6.0 0.00 0.00 0.00 98 1009.2
20260506093022 75 118 3.0 6.0 0.00 0.00 0.00 98 1009.4
20260506091518 75 137 2.0 5.0 0.00 0.00 0.00 98 1009.5
20260506090017 75 125 3.0 6.0 0.00 0.00 0.00 98 1009.7
20260506084517 75 153 3.0 6.0 0.00 0.00 0.00 98 1009.6
20260506083016 75 136 2.0 5.0 0.00 0.00 0.00 98 1009.7
20260506081514 75 136 2.0 7.0 0.00 0.00 0.00 98 1009.6
20260506073024 75 127 3.0 6.0 0.00 0.00 0.00 97 1009.9
20260506071510 75 141 3.0 7.0 0.00 0.00 0.00 97 1009.9
20260506061505 75 124 4.0 8.0 0.00 0.00 0.00 96 1010.0
20260506044636 75 143 7.0 11.0 0.00 0.00 0.00 96 1010.1
20260506043041 75 146 6.0 9.0 0.00 0.00 0.00 96 1010.1
20260506041553 75 163 5.0 12.0 0.00 0.00 0.00 96 1010.0
20260506040040 75 150 5.0 10.0 0.00 0.00 0.00 96 1010.1
20260506034605 75 112 5.0 9.0 0.00 0.00 0.00 96 1010.1
20260506033039 75 132 4.0 9.0 0.00 0.00 0.00 96 1010.1
20260506031541 75 140 5.0 10.0 0.00 0.00 0.00 96 1009.8
20260506030038 75 167 4.0 8.0 0.00 0.00 0.00 96 1009.7
20260506024536 75 138 5.0 10.0 0.00 0.00 0.00 96 1009.5
20260506023052 75 153 3.0 8.0 0.00 0.00 0.00 96 1009.4
20260506021535 75 139 5.0 9.0 0.00 0.00 0.00 96 1009.2
20260506020035 75 136 4.0 8.0 0.00 0.00 0.00 96 1009.1
20260506014534 76 137 5.0 10.0 0.00 0.00 0.00 95 1009.1
20260506011532 76 150 6.0 13.0 0.00 0.00 0.00 93 1008.6
20260506010032 76 182 7.0 13.0 0.00 0.00 0.00 93 1008.6
20260506004548 77 160 9.0 16.0 0.00 0.00 0.00 93 1008.6
20260506003041 77 142 6.0 14.0 0.00 0.00 0.00 92 1008.4
20260506001529 77 139 5.0 12.0 0.00 0.00 0.00 92 1008.6
20260506000030 77 160 6.0 17.0 0.00 0.00 0.00 92 1008.5
20260505233053 78 161 8.0 13.0 0.00 0.00 0.00 91 1008.6
20260505231607 78 141 8.0 16.0 0.00 0.00 0.00 90 1008.6
20260505230045 78 173 7.0 15.0 0.00 0.00 0.00 92 1008.7
20260505224543 78 129 9.0 17.0 0.00 0.00 0.00 91 1008.6
20260505223042 78 135 8.0 16.0 0.00 0.00 0.00 91 1008.6
20260505221541 79 42 7.0 16.0 0.00 0.00 0.00 90 1008.6
20260505220055 79 157 9.0 15.0 0.00 0.00 0.00 90 1008.7
20260505214541 78 188 9.0 16.0 0.00 0.00 0.00 91 1008.8
20260505213037 78 131 6.0 15.0 0.00 0.00 0.00 91 1008.9
20260505211544 78 190 6.0 17.0 0.00 0.00 0.00 91 1009.1
20260505210033 78 167 8.0 16.0 0.00 0.00 0.00 90 1009.3
20260505204535 78 162 8.0 15.0 0.00 0.00 0.00 90 1009.6
20260505203032 78 155 6.0 15.0 0.00 0.00 0.00 90 1009.5
20260505201535 79 185 8.0 20.0 0.00 0.00 0.00 89 1009.6
20260505200031 79 253 9.0 18.0 0.00 0.00 0.00 88 1009.6
20260505194536 80 231 9.0 19.0 0.00 0.00 0.00 88 1009.7
20260505193039 80 127 10.0 18.0 0.00 0.00 0.00 87 1009.9
20260505191541 79 133 9.0 19.0 0.00 0.00 0.00 87 1009.9
20260505190031 80 155 7.0 16.0 0.00 0.00 0.00 87 1009.9
20260505184529 80 185 10.0 17.0 0.00 0.00 0.00 85 1010.1
20260505183029 80 171 9.0 16.0 0.00 0.00 0.00 85 1010.1
20260505181527 81 155 9.0 17.0 0.00 0.00 0.00 84 1010.1
20260505180041 80 200 8.0 16.0 0.00 0.00 0.00 86 1010.2
20260505174535 79 139 8.0 17.0 0.00 0.00 0.00 87 1010.3
20260505173027 79 127 10.0 18.0 0.00 0.00 0.00 87 1010.5
20260505171530 79 239 8.0 15.0 0.00 0.00 0.00 87 1010.7
20260505170028 79 198 9.0 18.0 0.00 0.00 0.00 86 1010.6
20260505164522 80 170 9.0 19.0 0.00 0.00 0.00 84 1010.5
20260505163022 81 122 11.0 20.0 0.00 0.00 0.00 82 1010.4
20260505161518 80 212 13.0 20.0 0.00 0.00 0.00 83 1010.3
20260505153011 78 269 7.0 16.0 0.00 0.00 0.00 86 1010.6
20260505151512 78 221 7.0 16.0 0.00 0.00 0.00 86 1010.6
20260505124545 73 140 4.0 10.0 0.00 0.00 0.00 91 1010.2
20260505123059 73 129 4.0 12.0 0.00 0.00 0.00 91 1010.1
20260505121536 73 167 5.0 9.0 0.00 0.00 0.00 91 1010.0